Sunday, November 19, 2017, 9:14 AM EST
Back to Local

KSLK, Adirondack Regional Airport

Location: Saranac Lake, NY, United States Lat: 44.4
Local Time: 9:14 AM EST (14:14 GMT) Lon: -74.2
Time Zone: US/Eastern Elev: 1663 ft

Show me the last for .
Show Decoded

2017-11-19 08:51 METAR KSLK 191351Z AUTO 29010G20KT 250V330 1/2SM -SN FZFG OVC009 M01/M01 A2917
                 RMK AO2 RAE04SNB04 PRESRR SLP890 P0003 T10061011 =
2017-11-19 08:47 METAR KSLK 191347Z AUTO 26007G18KT 1/4SM SN FZFG BKN007 OVC011 M01/M01 A2916 RMK
                 AO2 RAE04SNB04 PRESRR P0003 =
2017-11-19 08:39 METAR KSLK 191339Z AUTO 29011G20KT 220V340 1/2SM SN FZFG BKN007 OVC012 M01/M01
                 A2914 RMK AO2 RAE04SNB04 PRESRR P0002 T10061011 =
2017-11-19 08:15 METAR KSLK 191315Z AUTO VRB05G17KT 1 3/4SM -SN BR BKN006 OVC011 00/00 A2910 RMK
                 AO2 RAE04SNB04 PRESRR P0001 T00000000 =
2017-11-19 07:51 METAR KSLK 191251Z AUTO 32008G20KT 290V360 5SM -RA BR BKN006 OVC011 03/03 A2905
                 RMK AO2 PRESRR SLP847 P0006 T00330028 =
2017-11-19 07:35 METAR KSLK 191235Z AUTO 29007G16KT 260V320 4SM RA BR BKN008 OVC016 06/05 A2902
                 RMK AO2 PRESRR P0004 T00560050 =
2017-11-19 07:22 METAR KSLK 191222Z AUTO 23004KT 5SM -RA BR FEW008 BKN015 OVC039 06/06 A2900 RMK
                 AO2 P0002 T00560056 =
2017-11-19 07:20 METAR KSLK 191220Z AUTO 25004KT 7SM -RA BKN013 BKN018 OVC025 06/06 A2900 RMK AO2
                 P0001 T00560056 =
2017-11-19 06:51 METAR KSLK 191151Z AUTO 27005KT 5SM RA BR SCT014 BKN021 OVC046 06/06 A2899 RMK
                 AO2 SLP825 P0008 60016 70029 T00560056 10061 20033 56014 =
2017-11-19 06:26 METAR KSLK 191126Z AUTO 26005KT 4SM RA BR FEW010 BKN015 OVC022 06/06 A2899 RMK
                 AO2 P0003 T00560056 =
2017-11-19 06:12 METAR KSLK 191112Z AUTO 27005KT 4SM -RA BR FEW008 BKN014 OVC024 06/06 A2899 RMK
                 AO2 P0001 T00560056 =
2017-11-19 05:51 METAR KSLK 191051Z AUTO 00000KT 4SM -RA BR BKN026 OVC032 06/06 A2899 RMK AO2
                 RAE30B35 SLP826 P0002 T00560056 =
2017-11-19 05:30 METAR KSLK 191030Z AUTO 25004KT 10SM BKN026 BKN034 OVC060 06/06 A2900 RMK AO2
                 RAE30 P0001 T00560056 =
2017-11-19 05:22 METAR KSLK 191022Z AUTO 27005KT 10SM -RA SCT023 BKN034 OVC060 06/06 A2900 RMK
                 AO2 P0001 T00560056 =
2017-11-19 04:51 METAR KSLK 190951Z AUTO 24005KT 4SM RA BR BKN015 OVC026 06/06 A2902 RMK AO2
                 RAB15 SLP833 P0006 T00610056 =
2017-11-19 03:51 METAR KSLK 190851Z AUTO VRB03KT 10SM OVC017 05/04 A2903 RMK AO2 SLP840 T00500044
                 58033 =
2017-11-19 02:51 METAR KSLK 190751Z AUTO 00000KT 8SM OVC019 04/04 A2907 RMK AO2 SLP853 T00390039
                 =
2017-11-19 01:51 METAR KSLK 190651Z AUTO 00000KT 10SM OVC019 04/04 A2911 RMK AO2 SLP867 T00390039
                 =
2017-11-19 00:51 METAR KSLK 190551Z AUTO 21006KT 10SM OVC018 05/04 A2914 RMK AO2 PRESFR SLP875
                 60013 T00500044 10056 20017 58045 =
2017-11-18 23:51 METAR KSLK 190451Z AUTO 00000KT 5SM BR OVC020 02/02 A2917 RMK AO2 RAE0354 PRESFR
                 SLP892 P0000 T00220022 400331133 =
2017-11-18 23:10 METAR KSLK 190410Z AUTO 00000KT 7SM FEW011 BKN020 OVC026 02/02 A2922 RMK AO2
                 RAE0354 P0000 T00170017 =
2017-11-18 22:51 METAR KSLK 190351Z AUTO 00000KT 4SM -RA BR OVC012 02/02 A2924 RMK AO2 RAB37
                 SLP918 P0001 T00170017 =
2017-11-18 22:38 METAR KSLK 190338Z AUTO 00000KT 5SM -RA BR OVC014 02/02 A2924 RMK AO2 RAB37
                 P0000 T00220022 =
2017-11-18 21:51 METAR KSLK 190251Z AUTO 00000KT 10SM OVC017 03/02 A2928 RMK AO2 RAE25UPB09E42
                 SLP929 P0002 60012 T00280022 56044 =
2017-11-18 20:51 METAR KSLK 190151Z AUTO 00000KT 5SM RA BR BKN019 BKN035 OVC049 02/02 A2932 RMK
                 AO2 SLP947 P0008 T00170017 =
2017-11-18 19:51 METAR KSLK 190051Z AUTO 00000KT 5SM RA BR OVC017 02/01 A2936 RMK AO2
                 RAB16UPB33E38 SLP962 P0002 T00170011 =
2017-11-18 18:51 METAR KSLK 182351Z AUTO 17004KT 10SM OVC019 03/00 A2941 RMK AO2 SLP981 60000
                 T00280000 10033 20006 58017 =
2017-11-18 17:51 METAR KSLK 182251Z AUTO 00000KT 10SM OVC021 02/M01 A2944 RMK AO2 SLP989
                 T00171006 =
2017-11-18 16:51 METAR KSLK 182151Z AUTO 24005KT 10SM OVC023 02/M02 A2945 RMK AO2 RAE01UPB01E17
                 SLP992 P0000 T00221017 =
2017-11-18 15:51 METAR KSLK 182051Z AUTO 22009KT 10SM -RA OVC026 03/M03 A2947 RMK AO2 RAB51
                 SLP999 P0000 60000 T00331028 56027 =
2017-11-18 14:51 METAR KSLK 181951Z AUTO 00000KT 10SM OVC027 02/M02 A2950 RMK AO2 SLP012
                 T00171022 =
2017-11-18 14:24 METAR KSLK 181924Z AUTO 00000KT 10SM BKN029 OVC047 02/M02 A2950 RMK AO2
                 T00171022 =
2017-11-18 13:51 METAR KSLK 181851Z AUTO 00000KT 10SM OVC055 01/M03 A2950 RMK AO2 SLP012
                 T00111033 =
2017-11-18 12:51 METAR KSLK 181751Z AUTO 00000KT 10SM OVC060 02/M04 A2955 RMK AO2 UPB08E22 SLP030
                 P0000 60000 T00171039 10017 21106 58034 =
2017-11-18 11:51 METAR KSLK 181651Z AUTO 00000KT 10SM BKN055 OVC085 00/M04 A2961 RMK AO2 SLP053
                 T00001044 =
2017-11-18 10:51 METAR KSLK 181551Z AUTO 05005KT 10SM OVC100 M03/M06 A2963 RMK AO2 SLP059
                 T10281056 $ =
2017-11-18 09:51 METAR KSLK 181451Z AUTO 00000KT 10SM OVC110 M04/M07 A2966 RMK AO2 SLP070
                 T10391067 58034 $ =

Support USWX by starting your Amazon purchase here.